This is the latest recevied weather packets stored in our database for station/object KO6LQK. If no packets are shown the sender has not sent any weather packets the latest 10 day(s).
| Time | Temp. | Humidity | Pressure | Rain* | Wind** | Luminosity | Snow |
|---|---|---|---|---|---|---|---|
| 1788147909 | 25.56° C | 40% | 1019.9 hPa | 0 mm | - | 0 W/m² | - |
| 1788147604 | 25.56° C | 39% | 1019.8 hPa | 0 mm | - | 0 W/m² | - |
| 1788147300 | 26.11° C | 36% | 1019.7 hPa | 0 mm | - | 0 W/m² | - |
| 1788146995 | 26.67° C | 31% | 1019.6 hPa | 0 mm | - | 0 W/m² | - |
| 1788146695 | 26.67° C | 28% | 1019.4 hPa | 0 mm | - | 0 W/m² | - |
| 1788146391 | 26.67° C | 28% | 1019.5 hPa | 0 mm | - | 0 W/m² | - |
| 1788146090 | 26.67° C | 28% | 1019.3 hPa | 0 mm | - | 0 W/m² | - |
| 1788145789 | 27.22° C | 28% | 1019.4 hPa | 0 mm | - | 0 W/m² | - |
| 1788145489 | 27.22° C | 27% | 1019.3 hPa | 0 mm | - | 0 W/m² | - |
| 1788145187 | 27.22° C | 28% | 1019.2 hPa | 0 mm | - | 0 W/m² | - |
| 1788144886 | 27.22° C | 27% | 1019.3 hPa | 0 mm | - | 0 W/m² | - |
| 1788144582 | 27.22° C | 27% | 1019.2 hPa | 0 mm | - | 0 W/m² | - |
| 1788144283 | 27.78° C | 27% | 1019.3 hPa | 0 mm | - | 0 W/m² | - |
| 1788143977 | 27.78° C | 29% | 1019.3 hPa | 0 mm | - | 0 W/m² | - |
| 1788143675 | 27.78° C | 30% | 1019.1 hPa | 0 mm | - | 1 W/m² | - |
| 1788143370 | 27.78° C | 30% | 1019.3 hPa | 0 mm | - | 1 W/m² | - |
| 1788143069 | 28.33° C | 29% | 1019 hPa | 0 mm | - | 3 W/m² | - |
| 1788142764 | 28.33° C | 28% | 1019.1 hPa | 0 mm | - | 5 W/m² | - |
| 1788142464 | 28.89° C | 28% | 1018.9 hPa | 0 mm | - | 9 W/m² | - |
| 1788142160 | 28.89° C | 29% | 1018.9 hPa | 0 mm | - | 14 W/m² | - |
| 1788141859 | 28.89° C | 29% | 1018.7 hPa | 0 mm | - | 19 W/m² | - |
| 1788141554 | 29.44° C | 28% | 1018.9 hPa | 0 mm | - | 28 W/m² | - |
| 1788141250 | 29.44° C | 28% | 1018.9 hPa | 0 mm | - | 31 W/m² | - |
| 1788140951 | 30° C | 28% | 1019 hPa | 0 mm | - | 40 W/m² | - |
| 1788140645 | 30° C | 27% | 1018.9 hPa | 0 mm | - | 41 W/m² | - |
* Rain latest hour (hover to see other rain measurements)
** Current wind speed in m/s (hover to see current wind gust speed)